Tracking 20083 objects as of 8-Dec-2019
HD Live streaming from Space Station
objects crossing your sky now

FENGYUN 1C DEB

Track FENGYUN 1C DEB now!
10-day predictions


NORAD ID: 31622
Int'l Code: 1999-025CAC
Perigee: 823.0 km
Apogee: 854.3 km
Inclination: 98.9 °
Period: 101.5 minutes
Semi major axis: 7209 km
RCS: 0.0179 m2 (small)
Launch date: May 10, 1999
Source: People's Republic of China (PRC)
Launch site: Taiyaun Space Center, China (TSC)

Note: This is SATELLITE DEBRIS
aabbcc
Your satellite tracking list
Your tracking list is empty




NASA's NSSDC Master Catalog

Two Line Element Set (TLE):
1 31622U 99025CAC 19341.12417057  .00000666  00000-0  34569-3 0  9992
2 31622  98.9420  26.3000 0021680 202.6431 176.6712 14.18180302645502
Source of the keplerian elements: AFSPC